owner,sensor,date,latitude,longitude,air_pressure(mBar),qcFlag 
ADCP,ioos:station:NOAA.NDBC:WDEL1:1,2010-03-01T00:30:00Z,28.6620,-89.5510,1016.8,11111222 
ADCP,ioos:station:NOAA.NDBC:WDEL1:1,2010-03-01T01:30:00Z,28.6620,-89.5510,1016.4,11111222 
ADCP,ioos:station:NOAA.NDBC:WDEL1:1,2010-03-01T02:30:00Z,28.6620,-89.5510,1016.4,11111222 
ADCP,ioos:station:NOAA.NDBC:WDEL1:1,2010-03-01T03:30:00Z,28.6620,-89.5510,1016.4,11111222 
ADCP,ioos:station:NOAA.NDBC:WDEL1:1,2010-03-01T04:30:00Z,28.6620,-89.5510,1016.1,11111222 
ADCP,ioos:station:NOAA.NDBC:WDEL1:1,2010-03-01T05:30:00Z,28.6620,-89.5510,1015.5,11111222 
ADCP,ioos:station:NOAA.NDBC:WDEL1:1,2010-03-01T06:30:00Z,28.6620,-89.5510,1014.9,11111222 
ADCP,ioos:station:NOAA.NDBC:WDEL1:1,2010-03-01T07:30:00Z,28.6620,-89.5510,1014.9,11111222 
ADCP,ioos:station:NOAA.NDBC:WDEL1:1,2010-03-01T08:30:00Z,28.6620,-89.5510,1013.6,11111222 
ADCP,ioos:station:NOAA.NDBC:WDEL1:1,2010-03-01T09:30:00Z,28.6620,-89.5510,1014.2,11111222 
ADCP,ioos:station:NOAA.NDBC:WDEL1:1,2010-03-01T10:30:00Z,28.6620,-89.5510,1013.9,11111222 
ADCP,ioos:station:NOAA.NDBC:WDEL1:1,2010-03-01T11:30:00Z,28.6620,-89.5510,1013.3,11111222 
ADCP,ioos:station:NOAA.NDBC:WDEL1:1,2010-03-01T12:30:00Z,28.6620,-89.5510,1013.7,11111222 
ADCP,ioos:station:NOAA.NDBC:WDEL1:1,2010-03-01T13:30:00Z,28.6620,-89.5510,1014.8,11111222 
ADCP,ioos:station:NOAA.NDBC:WDEL1:1,2010-03-01T14:30:00Z,28.6620,-89.5510,1014.5,11111222 
ADCP,ioos:station:NOAA.NDBC:WDEL1:1,2010-03-01T15:30:00Z,28.6620,-89.5510,1014.8,11111222 
ADCP,ioos:station:NOAA.NDBC:WDEL1:1,2010-03-01T16:30:00Z,28.6620,-89.5510,1013.0,11111222 
ADCP,ioos:station:NOAA.NDBC:WDEL1:1,2010-03-01T17:30:00Z,28.6620,-89.5510,1012.3,11111222 
ADCP,ioos:station:NOAA.NDBC:WDEL1:1,2010-03-01T18:30:00Z,28.6620,-89.5510,1011.1,11111222 
ADCP,ioos:station:NOAA.NDBC:WDEL1:1,2010-03-01T19:30:00Z,28.6620,-89.5510,1008.8,11111222 
ADCP,ioos:station:NOAA.NDBC:WDEL1:1,2010-03-01T20:30:00Z,28.6620,-89.5510,1008.0,11111222 
ADCP,ioos:station:NOAA.NDBC:WDEL1:1,2010-03-01T21:30:00Z,28.6620,-89.5510,1006.9,11111222 
ADCP,ioos:station:NOAA.NDBC:WDEL1:1,2010-03-01T22:30:00Z,28.6620,-89.5510,1005.9,11111222 
ADCP,ioos:station:NOAA.NDBC:WDEL1:1,2010-03-01T23:30:00Z,28.6620,-89.5510,1005.4,11111222 
ADCP,ioos:station:NOAA.NDBC:WDEL1:1,2010-03-02T00:30:00Z,28.6620,-89.5510,1005.1,11111222 
ADCP,ioos:station:NOAA.NDBC:WDEL1:1,2010-03-02T01:30:00Z,28.6620,-89.5510,1004.7,11111222 
ADCP,ioos:station:NOAA.NDBC:WDEL1:1,2010-03-02T02:30:00Z,28.6620,-89.5510,1005.1,11111222 
ADCP,ioos:station:NOAA.NDBC:WDEL1:1,2010-03-02T03:30:00Z,28.6620,-89.5510,1005.6,11111222 
ADCP,ioos:station:NOAA.NDBC:WDEL1:1,2010-03-02T04:30:00Z,28.6620,-89.5510,1006.1,11111222 
ADCP,ioos:station:NOAA.NDBC:WDEL1:1,2010-03-02T05:30:00Z,28.6620,-89.5510,1005.9,11111222 
ADCP,ioos:station:NOAA.NDBC:WDEL1:1,2010-03-02T06:30:00Z,28.6620,-89.5510,1005.3,11111222 
ADCP,ioos:station:NOAA.NDBC:WDEL1:1,2010-03-02T07:30:00Z,28.6620,-89.5510,1005.2,11111222 
ADCP,ioos:station:NOAA.NDBC:WDEL1:1,2010-03-02T08:30:00Z,28.6620,-89.5510,1005.2,11111222 
ADCP,ioos:station:NOAA.NDBC:WDEL1:1,2010-03-02T09:30:00Z,28.6620,-89.5510,1005.5,11111222 
ADCP,ioos:station:NOAA.NDBC:WDEL1:1,2010-03-02T10:30:00Z,28.6620,-89.5510,1005.5,11111222 
ADCP,ioos:station:NOAA.NDBC:WDEL1:1,2010-03-02T11:30:00Z,28.6620,-89.5510,1006.2,11111222 
ADCP,ioos:station:NOAA.NDBC:WDEL1:1,2010-03-02T12:30:00Z,28.6620,-89.5510,1007.2,11111222 
ADCP,ioos:station:NOAA.NDBC:WDEL1:1,2010-03-02T13:30:00Z,28.6620,-89.5510,1008.3,11111222 
ADCP,ioos:station:NOAA.NDBC:WDEL1:1,2010-03-02T14:30:00Z,28.6620,-89.5510,1009.6,11111222 
ADCP,ioos:station:NOAA.NDBC:WDEL1:1,2010-03-02T15:30:00Z,28.6620,-89.5510,1010.8,11111222 
ADCP,ioos:station:NOAA.NDBC:WDEL1:1,2010-03-02T16:30:00Z,28.6620,-89.5510,1011.5,11111222 
ADCP,ioos:station:NOAA.NDBC:WDEL1:1,2010-03-02T17:30:00Z,28.6620,-89.5510,1012.3,11111222 
ADCP,ioos:station:NOAA.NDBC:WDEL1:1,2010-03-02T18:30:00Z,28.6620,-89.5510,1012.2,11111222 
ADCP,ioos:station:NOAA.NDBC:WDEL1:1,2010-03-02T19:30:00Z,28.6620,-89.5510,1011.9,11111222 
ADCP,ioos:station:NOAA.NDBC:WDEL1:1,2010-03-02T20:30:00Z,28.6620,-89.5510,1012.2,11111222 
ADCP,ioos:station:NOAA.NDBC:WDEL1:1,2010-03-02T21:30:00Z,28.6620,-89.5510,1012.3,11111222 
ADCP,ioos:station:NOAA.NDBC:WDEL1:1,2010-03-02T22:30:00Z,28.6620,-89.5510,1013.1,11111222 
ADCP,ioos:station:NOAA.NDBC:WDEL1:1,2010-03-02T23:30:00Z,28.6620,-89.5510,1013.8,11111222 
ADCP,ioos:station:NOAA.NDBC:WDEL1:1,2010-03-03T00:30:00Z,28.6620,-89.5510,1014.6,11111222 
ADCP,ioos:station:NOAA.NDBC:WDEL1:1,2010-03-03T01:30:00Z,28.6620,-89.5510,1015.7,11111222 
ADCP,ioos:station:NOAA.NDBC:WDEL1:1,2010-03-03T02:30:00Z,28.6620,-89.5510,1016.3,11111222 
ADCP,ioos:station:NOAA.NDBC:WDEL1:1,2010-03-03T03:30:00Z,28.6620,-89.5510,1017.1,11111222 
ADCP,ioos:station:NOAA.NDBC:WDEL1:1,2010-03-03T04:30:00Z,28.6620,-89.5510,1018.0,11111222 
ADCP,ioos:station:NOAA.NDBC:WDEL1:1,2010-03-03T05:30:00Z,28.6620,-89.5510,1018.3,11111222 
ADCP,ioos:station:NOAA.NDBC:WDEL1:1,2010-03-03T06:30:00Z,28.6620,-89.5510,1018.4,11111222 
ADCP,ioos:station:NOAA.NDBC:WDEL1:1,2010-03-03T07:30:00Z,28.6620,-89.5510,1019.0,11111222 
ADCP,ioos:station:NOAA.NDBC:WDEL1:1,2010-03-03T08:30:00Z,28.6620,-89.5510,1018.6,11111222 
ADCP,ioos:station:NOAA.NDBC:WDEL1:1,2010-03-03T09:30:00Z,28.6620,-89.5510,1018.0,11111222 
ADCP,ioos:station:NOAA.NDBC:WDEL1:1,2010-03-03T10:30:00Z,28.6620,-89.5510,1018.1,11111222 
ADCP,ioos:station:NOAA.NDBC:WDEL1:1,2010-03-03T11:30:00Z,28.6620,-89.5510,1018.5,11111222 
ADCP,ioos:station:NOAA.NDBC:WDEL1:1,2010-03-03T12:30:00Z,28.6620,-89.5510,1018.5,11111222 
ADCP,ioos:station:NOAA.NDBC:WDEL1:1,2010-03-03T13:30:00Z,28.6620,-89.5510,1019.2,11111222 
ADCP,ioos:station:NOAA.NDBC:WDEL1:1,2010-03-03T14:30:00Z,28.6620,-89.5510,1019.7,11111222 
ADCP,ioos:station:NOAA.NDBC:WDEL1:1,2010-03-03T15:30:00Z,28.6620,-89.5510,1020.0,11111222 
ADCP,ioos:station:NOAA.NDBC:WDEL1:1,2010-03-03T16:30:00Z,28.6620,-89.5510,1020.1,11111222 
ADCP,ioos:station:NOAA.NDBC:WDEL1:1,2010-03-03T17:30:00Z,28.6620,-89.5510,1020.1,11111222 
ADCP,ioos:station:NOAA.NDBC:WDEL1:1,2010-03-03T18:30:00Z,28.6620,-89.5510,1019.8,11111222 
ADCP,ioos:station:NOAA.NDBC:WDEL1:1,2010-03-03T19:30:00Z,28.6620,-89.5510,1019.3,11111222 
ADCP,ioos:station:NOAA.NDBC:WDEL1:1,2010-03-03T20:30:00Z,28.6620,-89.5510,1018.9,11111222 
ADCP,ioos:station:NOAA.NDBC:WDEL1:1,2010-03-03T21:30:00Z,28.6620,-89.5510,1018.6,11111222 
ADCP,ioos:station:NOAA.NDBC:WDEL1:1,2010-03-03T22:30:00Z,28.6620,-89.5510,1018.4,11111222 
ADCP,ioos:station:NOAA.NDBC:WDEL1:1,2010-03-03T23:30:00Z,28.6620,-89.5510,1018.4,11111222 
ADCP,ioos:station:NOAA.NDBC:WDEL1:1,2010-03-04T00:30:00Z,28.6620,-89.5510,1018.7,11111222 
ADCP,ioos:station:NOAA.NDBC:WDEL1:1,2010-03-04T01:30:00Z,28.6620,-89.5510,1019.1,11111222 
ADCP,ioos:station:NOAA.NDBC:WDEL1:1,2010-03-04T02:30:00Z,28.6620,-89.5510,1019.2,11111222 
ADCP,ioos:station:NOAA.NDBC:WDEL1:1,2010-03-04T03:30:00Z,28.6620,-89.5510,1019.9,11111222 
ADCP,ioos:station:NOAA.NDBC:WDEL1:1,2010-03-04T04:30:00Z,28.6620,-89.5510,1020.3,11111222 
ADCP,ioos:station:NOAA.NDBC:WDEL1:1,2010-03-04T05:30:00Z,28.6620,-89.5510,1020.2,11111222 
ADCP,ioos:station:NOAA.NDBC:WDEL1:1,2010-03-04T06:30:00Z,28.6620,-89.5510,1020.1,11111222 
ADCP,ioos:station:NOAA.NDBC:WDEL1:1,2010-03-04T07:30:00Z,28.6620,-89.5510,1020.6,11111222 
ADCP,ioos:station:NOAA.NDBC:WDEL1:1,2010-03-04T08:30:00Z,28.6620,-89.5510,1020.4,11111222 
ADCP,ioos:station:NOAA.NDBC:WDEL1:1,2010-03-04T09:30:00Z,28.6620,-89.5510,1020.2,11111222 
ADCP,ioos:station:NOAA.NDBC:WDEL1:1,2010-03-04T10:30:00Z,28.6620,-89.5510,1020.8,11111222 
ADCP,ioos:station:NOAA.NDBC:WDEL1:1,2010-03-04T11:30:00Z,28.6620,-89.5510,1021.4,11111222 
ADCP,ioos:station:NOAA.NDBC:WDEL1:1,2010-03-04T12:30:00Z,28.6620,-89.5510,1022.2,11111222 
ADCP,ioos:station:NOAA.NDBC:WDEL1:1,2010-03-04T13:30:00Z,28.6620,-89.5510,1022.6,11111222 
ADCP,ioos:station:NOAA.NDBC:WDEL1:1,2010-03-04T14:30:00Z,28.6620,-89.5510,1023.6,11111222 
ADCP,ioos:station:NOAA.NDBC:WDEL1:1,2010-03-04T15:30:00Z,28.6620,-89.5510,1024.3,11111222 
ADCP,ioos:station:NOAA.NDBC:WDEL1:1,2010-03-04T16:30:00Z,28.6620,-89.5510,1024.4,11111222 
ADCP,ioos:station:NOAA.NDBC:WDEL1:1,2010-03-04T17:30:00Z,28.6620,-89.5510,1024.4,11111222 
ADCP,ioos:station:NOAA.NDBC:WDEL1:1,2010-03-04T18:30:00Z,28.6620,-89.5510,1023.9,11111222 
ADCP,ioos:station:NOAA.NDBC:WDEL1:1,2010-03-04T19:30:00Z,28.6620,-89.5510,1023.2,11111222 
ADCP,ioos:station:NOAA.NDBC:WDEL1:1,2010-03-04T20:30:00Z,28.6620,-89.5510,1022.5,11111222 
ADCP,ioos:station:NOAA.NDBC:WDEL1:1,2010-03-04T21:30:00Z,28.6620,-89.5510,1022.5,11111222 
ADCP,ioos:station:NOAA.NDBC:WDEL1:1,2010-03-04T22:30:00Z,28.6620,-89.5510,1022.2,11111222 
ADCP,ioos:station:NOAA.NDBC:WDEL1:1,2010-03-04T23:30:00Z,28.6620,-89.5510,1022.0,11111222 
ADCP,ioos:station:NOAA.NDBC:WDEL1:1,2010-03-05T00:30:00Z,28.6620,-89.5510,1022.2,11111222 
ADCP,ioos:station:NOAA.NDBC:WDEL1:1,2010-03-05T01:30:00Z,28.6620,-89.5510,1022.7,11111222 
ADCP,ioos:station:NOAA.NDBC:WDEL1:1,2010-03-05T02:30:00Z,28.6620,-89.5510,1022.8,11111222 
ADCP,ioos:station:NOAA.NDBC:WDEL1:1,2010-03-05T03:30:00Z,28.6620,-89.5510,1023.0,11111222 
ADCP,ioos:station:NOAA.NDBC:WDEL1:1,2010-03-05T04:30:00Z,28.6620,-89.5510,1022.8,11111222 
ADCP,ioos:station:NOAA.NDBC:WDEL1:1,2010-03-05T05:30:00Z,28.6620,-89.5510,1022.9,11111222 
ADCP,ioos:station:NOAA.NDBC:WDEL1:1,2010-03-05T06:30:00Z,28.6620,-89.5510,1022.4,11111222 
ADCP,ioos:station:NOAA.NDBC:WDEL1:1,2010-03-05T07:30:00Z,28.6620,-89.5510,1022.1,11111222 
ADCP,ioos:station:NOAA.NDBC:WDEL1:1,2010-03-05T08:30:00Z,28.6620,-89.5510,1022.2,11111222 
ADCP,ioos:station:NOAA.NDBC:WDEL1:1,2010-03-05T09:30:00Z,28.6620,-89.5510,1021.9,11111222 
ADCP,ioos:station:NOAA.NDBC:WDEL1:1,2010-03-05T10:30:00Z,28.6620,-89.5510,1022.1,11111222 
ADCP,ioos:station:NOAA.NDBC:WDEL1:1,2010-03-05T11:30:00Z,28.6620,-89.5510,1022.4,11111222 
ADCP,ioos:station:NOAA.NDBC:WDEL1:1,2010-03-05T12:30:00Z,28.6620,-89.5510,1023.0,11111222 
ADCP,ioos:station:NOAA.NDBC:WDEL1:1,2010-03-05T13:30:00Z,28.6620,-89.5510,1023.8,11111222 
ADCP,ioos:station:NOAA.NDBC:WDEL1:1,2010-03-05T14:30:00Z,28.6620,-89.5510,1024.1,11111222 
ADCP,ioos:station:NOAA.NDBC:WDEL1:1,2010-03-05T15:30:00Z,28.6620,-89.5510,1025.0,11111222 
ADCP,ioos:station:NOAA.NDBC:WDEL1:1,2010-03-05T16:30:00Z,28.6620,-89.5510,1025.2,11111222 
ADCP,ioos:station:NOAA.NDBC:WDEL1:1,2010-03-05T17:30:00Z,28.6620,-89.5510,1024.9,11111222 
ADCP,ioos:station:NOAA.NDBC:WDEL1:1,2010-03-05T18:30:00Z,28.6620,-89.5510,1024.3,11111222 
ADCP,ioos:station:NOAA.NDBC:WDEL1:1,2010-03-05T19:30:00Z,28.6620,-89.5510,1023.6,11111222 
ADCP,ioos:station:NOAA.NDBC:WDEL1:1,2010-03-05T20:30:00Z,28.6620,-89.5510,1023.0,11111222 
ADCP,ioos:station:NOAA.NDBC:WDEL1:1,2010-03-05T21:30:00Z,28.6620,-89.5510,1022.8,11111222 
ADCP,ioos:station:NOAA.NDBC:WDEL1:1,2010-03-05T22:30:00Z,28.6620,-89.5510,1022.6,11111222 
ADCP,ioos:station:NOAA.NDBC:WDEL1:1,2010-03-05T23:30:00Z,28.6620,-89.5510,1022.3,11111222 
ADCP,ioos:station:NOAA.NDBC:WDEL1:1,2010-03-06T00:30:00Z,28.6620,-89.5510,1022.9,11111222 
ADCP,ioos:station:NOAA.NDBC:WDEL1:1,2010-03-06T01:30:00Z,28.6620,-89.5510,1023.2,11111222 
ADCP,ioos:station:NOAA.NDBC:WDEL1:1,2010-03-06T02:30:00Z,28.6620,-89.5510,1023.6,11111222 
ADCP,ioos:station:NOAA.NDBC:WDEL1:1,2010-03-06T03:30:00Z,28.6620,-89.5510,1023.8,11111222 
ADCP,ioos:station:NOAA.NDBC:WDEL1:1,2010-03-06T04:30:00Z,28.6620,-89.5510,1024.1,11111222 
ADCP,ioos:station:NOAA.NDBC:WDEL1:1,2010-03-06T05:30:00Z,28.6620,-89.5510,1023.8,11111222 
ADCP,ioos:station:NOAA.NDBC:WDEL1:1,2010-03-06T06:30:00Z,28.6620,-89.5510,1023.8,11111222 
ADCP,ioos:station:NOAA.NDBC:WDEL1:1,2010-03-06T07:30:00Z,28.6620,-89.5510,1023.9,11111222 
ADCP,ioos:station:NOAA.NDBC:WDEL1:1,2010-03-06T08:30:00Z,28.6620,-89.5510,1023.7,11111222 
ADCP,ioos:station:NOAA.NDBC:WDEL1:1,2010-03-06T09:30:00Z,28.6620,-89.5510,1023.6,11111222 
ADCP,ioos:station:NOAA.NDBC:WDEL1:1,2010-03-06T10:30:00Z,28.6620,-89.5510,1023.8,11111222 
ADCP,ioos:station:NOAA.NDBC:WDEL1:1,2010-03-06T11:30:00Z,28.6620,-89.5510,1023.9,11111222 
ADCP,ioos:station:NOAA.NDBC:WDEL1:1,2010-03-06T12:30:00Z,28.6620,-89.5510,1024.7,11111222 
ADCP,ioos:station:NOAA.NDBC:WDEL1:1,2010-03-06T13:30:00Z,28.6620,-89.5510,1025.0,11111222 
ADCP,ioos:station:NOAA.NDBC:WDEL1:1,2010-03-06T14:30:00Z,28.6620,-89.5510,1025.8,11111222 
ADCP,ioos:station:NOAA.NDBC:WDEL1:1,2010-03-06T15:30:00Z,28.6620,-89.5510,1026.2,11111222 
ADCP,ioos:station:NOAA.NDBC:WDEL1:1,2010-03-06T16:30:00Z,28.6620,-89.5510,1026.6,11111222 
ADCP,ioos:station:NOAA.NDBC:WDEL1:1,2010-03-06T17:30:00Z,28.6620,-89.5510,1026.5,11111222 
ADCP,ioos:station:NOAA.NDBC:WDEL1:1,2010-03-06T18:30:00Z,28.6620,-89.5510,1025.7,11111222 
ADCP,ioos:station:NOAA.NDBC:WDEL1:1,2010-03-06T19:30:00Z,28.6620,-89.5510,1025.2,11111222 
ADCP,ioos:station:NOAA.NDBC:WDEL1:1,2010-03-06T20:30:00Z,28.6620,-89.5510,1024.9,11111222 
ADCP,ioos:station:NOAA.NDBC:WDEL1:1,2010-03-06T21:30:00Z,28.6620,-89.5510,1024.3,11111222 
ADCP,ioos:station:NOAA.NDBC:WDEL1:1,2010-03-06T22:30:00Z,28.6620,-89.5510,1023.9,11111222 
ADCP,ioos:station:NOAA.NDBC:WDEL1:1,2010-03-06T23:30:00Z,28.6620,-89.5510,1023.5,11111222 
ADCP,ioos:station:NOAA.NDBC:WDEL1:1,2010-03-07T00:30:00Z,28.6620,-89.5510,1023.9,11111222 
ADCP,ioos:station:NOAA.NDBC:WDEL1:1,2010-03-07T01:30:00Z,28.6620,-89.5510,1024.3,11111222 
ADCP,ioos:station:NOAA.NDBC:WDEL1:1,2010-03-07T02:30:00Z,28.6620,-89.5510,1024.8,11111222 
ADCP,ioos:station:NOAA.NDBC:WDEL1:1,2010-03-07T03:30:00Z,28.6620,-89.5510,1025.1,11111222 
ADCP,ioos:station:NOAA.NDBC:WDEL1:1,2010-03-07T04:30:00Z,28.6620,-89.5510,1024.8,11111222 
ADCP,ioos:station:NOAA.NDBC:WDEL1:1,2010-03-07T05:30:00Z,28.6620,-89.5510,1024.8,11111222 
ADCP,ioos:station:NOAA.NDBC:WDEL1:1,2010-03-07T06:30:00Z,28.6620,-89.5510,1024.6,11111222 
ADCP,ioos:station:NOAA.NDBC:WDEL1:1,2010-03-07T07:30:00Z,28.6620,-89.5510,1024.9,11111222 
ADCP,ioos:station:NOAA.NDBC:WDEL1:1,2010-03-07T08:30:00Z,28.6620,-89.5510,1024.5,11111222 
ADCP,ioos:station:NOAA.NDBC:WDEL1:1,2010-03-07T09:30:00Z,28.6620,-89.5510,1024.4,11111222 
ADCP,ioos:station:NOAA.NDBC:WDEL1:1,2010-03-07T10:30:00Z,28.6620,-89.5510,1024.4,11111222 
ADCP,ioos:station:NOAA.NDBC:WDEL1:1,2010-03-07T11:30:00Z,28.6620,-89.5510,1024.5,11111222 
ADCP,ioos:station:NOAA.NDBC:WDEL1:1,2010-03-07T12:30:00Z,28.6620,-89.5510,1024.4,11111222 
ADCP,ioos:station:NOAA.NDBC:WDEL1:1,2010-03-07T13:30:00Z,28.6620,-89.5510,1024.6,11111222 
ADCP,ioos:station:NOAA.NDBC:WDEL1:1,2010-03-07T14:30:00Z,28.6620,-89.5510,1025.6,11111222 
ADCP,ioos:station:NOAA.NDBC:WDEL1:1,2010-03-07T15:30:00Z,28.6620,-89.5510,1026.2,11111222 
ADCP,ioos:station:NOAA.NDBC:WDEL1:1,2010-03-07T16:30:00Z,28.6620,-89.5510,1025.9,11111222 
ADCP,ioos:station:NOAA.NDBC:WDEL1:1,2010-03-07T17:30:00Z,28.6620,-89.5510,1025.6,11111222 
ADCP,ioos:station:NOAA.NDBC:WDEL1:1,2010-03-07T18:30:00Z,28.6620,-89.5510,1024.8,11111222 
ADCP,ioos:station:NOAA.NDBC:WDEL1:1,2010-03-07T19:30:00Z,28.6620,-89.5510,1023.5,11111222 
ADCP,ioos:station:NOAA.NDBC:WDEL1:1,2010-03-07T20:30:00Z,28.6620,-89.5510,1023.4,11111222 
ADCP,ioos:station:NOAA.NDBC:WDEL1:1,2010-03-07T21:30:00Z,28.6620,-89.5510,1022.8,11111222 
ADCP,ioos:station:NOAA.NDBC:WDEL1:1,2010-03-07T22:30:00Z,28.6620,-89.5510,1022.2,11111222 
ADCP,ioos:station:NOAA.NDBC:WDEL1:1,2010-03-07T23:30:00Z,28.6620,-89.5510,1022.7,11111222 
ADCP,ioos:station:NOAA.NDBC:WDEL1:1,2010-03-08T00:30:00Z,28.6620,-89.5510,1022.4,11111222 
ADCP,ioos:station:NOAA.NDBC:WDEL1:1,2010-03-08T01:30:00Z,28.6620,-89.5510,1022.0,11111222 
ADCP,ioos:station:NOAA.NDBC:WDEL1:1,2010-03-08T02:30:00Z,28.6620,-89.5510,1022.2,11111222 
ADCP,ioos:station:NOAA.NDBC:WDEL1:1,2010-03-08T03:30:00Z,28.6620,-89.5510,1022.8,11111222 
ADCP,ioos:station:NOAA.NDBC:WDEL1:1,2010-03-08T04:30:00Z,28.6620,-89.5510,1022.5,11111222 
ADCP,ioos:station:NOAA.NDBC:WDEL1:1,2010-03-08T05:30:00Z,28.6620,-89.5510,1022.4,11111222 
ADCP,ioos:station:NOAA.NDBC:WDEL1:1,2010-03-08T06:30:00Z,28.6620,-89.5510,1021.3,11111222 
ADCP,ioos:station:NOAA.NDBC:WDEL1:1,2010-03-08T07:30:00Z,28.6620,-89.5510,1020.9,11111222 
ADCP,ioos:station:NOAA.NDBC:WDEL1:1,2010-03-08T08:30:00Z,28.6620,-89.5510,1020.9,11111222 
ADCP,ioos:station:NOAA.NDBC:WDEL1:1,2010-03-08T09:30:00Z,28.6620,-89.5510,1020.6,11111222 
ADCP,ioos:station:NOAA.NDBC:WDEL1:1,2010-03-08T10:30:00Z,28.6620,-89.5510,1020.8,11111222 
ADCP,ioos:station:NOAA.NDBC:WDEL1:1,2010-03-08T11:30:00Z,28.6620,-89.5510,1020.8,11111222 
ADCP,ioos:station:NOAA.NDBC:WDEL1:1,2010-03-08T12:30:00Z,28.6620,-89.5510,1021.0,11111222 
ADCP,ioos:station:NOAA.NDBC:WDEL1:1,2010-03-08T13:30:00Z,28.6620,-89.5510,1021.8,11111222 
ADCP,ioos:station:NOAA.NDBC:WDEL1:1,2010-03-08T14:30:00Z,28.6620,-89.5510,1021.6,11111222 
ADCP,ioos:station:NOAA.NDBC:WDEL1:1,2010-03-08T15:30:00Z,28.6620,-89.5510,1021.1,11111222 
ADCP,ioos:station:NOAA.NDBC:WDEL1:1,2010-03-08T16:30:00Z,28.6620,-89.5510,1021.6,11111222 
ADCP,ioos:station:NOAA.NDBC:WDEL1:1,2010-03-08T17:30:00Z,28.6620,-89.5510,1020.9,11111222 
ADCP,ioos:station:NOAA.NDBC:WDEL1:1,2010-03-08T18:30:00Z,28.6620,-89.5510,1019.8,11111222 
ADCP,ioos:station:NOAA.NDBC:WDEL1:1,2010-03-08T19:30:00Z,28.6620,-89.5510,1019.3,11111222 
ADCP,ioos:station:NOAA.NDBC:WDEL1:1,2010-03-08T20:30:00Z,28.6620,-89.5510,1018.8,11111222 
ADCP,ioos:station:NOAA.NDBC:WDEL1:1,2010-03-08T21:30:00Z,28.6620,-89.5510,1018.0,11111222 
ADCP,ioos:station:NOAA.NDBC:WDEL1:1,2010-03-08T22:30:00Z,28.6620,-89.5510,1017.7,11111222 
ADCP,ioos:station:NOAA.NDBC:WDEL1:1,2010-03-08T23:30:00Z,28.6620,-89.5510,1017.4,11111222 
ADCP,ioos:station:NOAA.NDBC:WDEL1:1,2010-03-09T00:30:00Z,28.6620,-89.5510,1017.2,11111222 
ADCP,ioos:station:NOAA.NDBC:WDEL1:1,2010-03-09T01:30:00Z,28.6620,-89.5510,1016.6,11111222 
ADCP,ioos:station:NOAA.NDBC:WDEL1:1,2010-03-09T02:30:00Z,28.6620,-89.5510,1016.4,11111222 
ADCP,ioos:station:NOAA.NDBC:WDEL1:1,2010-03-09T03:30:00Z,28.6620,-89.5510,1015.8,11111222 
ADCP,ioos:station:NOAA.NDBC:WDEL1:1,2010-03-09T04:30:00Z,28.6620,-89.5510,1015.9,11111222 
ADCP,ioos:station:NOAA.NDBC:WDEL1:1,2010-03-09T05:30:00Z,28.6620,-89.5510,1014.3,11111222 
ADCP,ioos:station:NOAA.NDBC:WDEL1:1,2010-03-09T06:30:00Z,28.6620,-89.5510,1013.4,11111222 
ADCP,ioos:station:NOAA.NDBC:WDEL1:1,2010-03-09T07:30:00Z,28.6620,-89.5510,1013.0,11111222 
ADCP,ioos:station:NOAA.NDBC:WDEL1:1,2010-03-09T08:30:00Z,28.6620,-89.5510,1012.3,11111222 
ADCP,ioos:station:NOAA.NDBC:WDEL1:1,2010-03-09T09:30:00Z,28.6620,-89.5510,1011.7,11111222 
ADCP,ioos:station:NOAA.NDBC:WDEL1:1,2010-03-09T10:30:00Z,28.6620,-89.5510,1012.4,11111222 
ADCP,ioos:station:NOAA.NDBC:WDEL1:1,2010-03-09T11:30:00Z,28.6620,-89.5510,1012.9,11111222 
ADCP,ioos:station:NOAA.NDBC:WDEL1:1,2010-03-09T12:30:00Z,28.6620,-89.5510,1013.5,11111222 
ADCP,ioos:station:NOAA.NDBC:WDEL1:1,2010-03-09T13:30:00Z,28.6620,-89.5510,1014.3,11111222 
ADCP,ioos:station:NOAA.NDBC:WDEL1:1,2010-03-09T14:30:00Z,28.6620,-89.5510,1014.4,11111222 
ADCP,ioos:station:NOAA.NDBC:WDEL1:1,2010-03-09T15:30:00Z,28.6620,-89.5510,1014.5,11111222 
ADCP,ioos:station:NOAA.NDBC:WDEL1:1,2010-03-09T16:30:00Z,28.6620,-89.5510,1013.7,11111222 
ADCP,ioos:station:NOAA.NDBC:WDEL1:1,2010-03-09T17:30:00Z,28.6620,-89.5510,1013.5,11111222 
ADCP,ioos:station:NOAA.NDBC:WDEL1:1,2010-03-09T18:30:00Z,28.6620,-89.5510,1013.2,11111222 
ADCP,ioos:station:NOAA.NDBC:WDEL1:1,2010-03-09T19:30:00Z,28.6620,-89.5510,1012.4,11111222 
ADCP,ioos:station:NOAA.NDBC:WDEL1:1,2010-03-09T20:30:00Z,28.6620,-89.5510,1011.8,11111222 
ADCP,ioos:station:NOAA.NDBC:WDEL1:1,2010-03-09T21:30:00Z,28.6620,-89.5510,1011.3,11111222 
ADCP,ioos:station:NOAA.NDBC:WDEL1:1,2010-03-09T22:30:00Z,28.6620,-89.5510,1011.1,11111222 
ADCP,ioos:station:NOAA.NDBC:WDEL1:1,2010-03-09T23:30:00Z,28.6620,-89.5510,1010.9,11111222 
ADCP,ioos:station:NOAA.NDBC:WDEL1:1,2010-03-10T00:30:00Z,28.6620,-89.5510,1011.0,11111222 
ADCP,ioos:station:NOAA.NDBC:WDEL1:1,2010-03-10T01:30:00Z,28.6620,-89.5510,1011.5,11111222 
ADCP,ioos:station:NOAA.NDBC:WDEL1:1,2010-03-10T02:30:00Z,28.6620,-89.5510,1012.2,11111222 
ADCP,ioos:station:NOAA.NDBC:WDEL1:1,2010-03-10T03:30:00Z,28.6620,-89.5510,1012.0,11111222 
ADCP,ioos:station:NOAA.NDBC:WDEL1:1,2010-03-10T04:30:00Z,28.6620,-89.5510,1011.9,11111222 
ADCP,ioos:station:NOAA.NDBC:WDEL1:1,2010-03-10T05:30:00Z,28.6620,-89.5510,1011.5,11111222 
ADCP,ioos:station:NOAA.NDBC:WDEL1:1,2010-03-10T06:30:00Z,28.6620,-89.5510,1010.6,11111222 
ADCP,ioos:station:NOAA.NDBC:WDEL1:1,2010-03-10T07:30:00Z,28.6620,-89.5510,1009.8,11111222 
ADCP,ioos:station:NOAA.NDBC:WDEL1:1,2010-03-10T08:30:00Z,28.6620,-89.5510,1009.0,11111222 
ADCP,ioos:station:NOAA.NDBC:WDEL1:1,2010-03-10T09:30:00Z,28.6620,-89.5510,1008.0,11111222 
ADCP,ioos:station:NOAA.NDBC:WDEL1:1,2010-03-10T10:30:00Z,28.6620,-89.5510,1008.1,11111222 
ADCP,ioos:station:NOAA.NDBC:WDEL1:1,2010-03-10T11:30:00Z,28.6620,-89.5510,1008.5,11111222 
ADCP,ioos:station:NOAA.NDBC:WDEL1:1,2010-03-10T12:30:00Z,28.6620,-89.5510,1008.9,11111222 
ADCP,ioos:station:NOAA.NDBC:WDEL1:1,2010-03-10T13:30:00Z,28.6620,-89.5510,1009.2,11111222 
ADCP,ioos:station:NOAA.NDBC:WDEL1:1,2010-03-10T14:30:00Z,28.6620,-89.5510,1009.7,11111222 
ADCP,ioos:station:NOAA.NDBC:WDEL1:1,2010-03-10T15:30:00Z,28.6620,-89.5510,1009.7,11111222 
ADCP,ioos:station:NOAA.NDBC:WDEL1:1,2010-03-10T16:30:00Z,28.6620,-89.5510,1009.4,11111222 
ADCP,ioos:station:NOAA.NDBC:WDEL1:1,2010-03-10T17:30:00Z,28.6620,-89.5510,1009.2,11111222 
ADCP,ioos:station:NOAA.NDBC:WDEL1:1,2010-03-10T18:30:00Z,28.6620,-89.5510,1008.0,11111222 
ADCP,ioos:station:NOAA.NDBC:WDEL1:1,2010-03-10T19:30:00Z,28.6620,-89.5510,1007.3,11111222 
ADCP,ioos:station:NOAA.NDBC:WDEL1:1,2010-03-10T20:30:00Z,28.6620,-89.5510,1006.6,11111222 
ADCP,ioos:station:NOAA.NDBC:WDEL1:1,2010-03-10T21:30:00Z,28.6620,-89.5510,1005.8,11111222 
ADCP,ioos:station:NOAA.NDBC:WDEL1:1,2010-03-10T22:30:00Z,28.6620,-89.5510,1005.6,11111222 
ADCP,ioos:station:NOAA.NDBC:WDEL1:1,2010-03-10T23:30:00Z,28.6620,-89.5510,1004.9,11111222 
ADCP,ioos:station:NOAA.NDBC:WDEL1:1,2010-03-11T00:30:00Z,28.6620,-89.5510,1005.2,11111222 
ADCP,ioos:station:NOAA.NDBC:WDEL1:1,2010-03-11T01:30:00Z,28.6620,-89.5510,1005.4,11111222 
ADCP,ioos:station:NOAA.NDBC:WDEL1:1,2010-03-11T02:30:00Z,28.6620,-89.5510,1005.7,11111222 
ADCP,ioos:station:NOAA.NDBC:WDEL1:1,2010-03-11T03:30:00Z,28.6620,-89.5510,1005.2,11111222 
ADCP,ioos:station:NOAA.NDBC:WDEL1:1,2010-03-11T04:30:00Z,28.6620,-89.5510,1005.6,11111222 
ADCP,ioos:station:NOAA.NDBC:WDEL1:1,2010-03-11T05:30:00Z,28.6620,-89.5510,1005.2,11111222 
ADCP,ioos:station:NOAA.NDBC:WDEL1:1,2010-03-11T06:30:00Z,28.6620,-89.5510,1004.4,11111222 
ADCP,ioos:station:NOAA.NDBC:WDEL1:1,2010-03-11T07:30:00Z,28.6620,-89.5510,1004.0,11111222 
ADCP,ioos:station:NOAA.NDBC:WDEL1:1,2010-03-11T08:30:00Z,28.6620,-89.5510,1003.5,11111222 
ADCP,ioos:station:NOAA.NDBC:WDEL1:1,2010-03-11T09:30:00Z,28.6620,-89.5510,1003.5,11111222 
ADCP,ioos:station:NOAA.NDBC:WDEL1:1,2010-03-11T10:30:00Z,28.6620,-89.5510,1003.6,11111222 
ADCP,ioos:station:NOAA.NDBC:WDEL1:1,2010-03-11T11:30:00Z,28.6620,-89.5510,1004.3,11111222 
ADCP,ioos:station:NOAA.NDBC:WDEL1:1,2010-03-11T12:30:00Z,28.6620,-89.5510,1004.5,11111222 
ADCP,ioos:station:NOAA.NDBC:WDEL1:1,2010-03-11T13:30:00Z,28.6620,-89.5510,1004.9,11111222 
ADCP,ioos:station:NOAA.NDBC:WDEL1:1,2010-03-11T14:30:00Z,28.6620,-89.5510,1004.8,11111222 
ADCP,ioos:station:NOAA.NDBC:WDEL1:1,2010-03-11T15:30:00Z,28.6620,-89.5510,1005.5,11111222 
ADCP,ioos:station:NOAA.NDBC:WDEL1:1,2010-03-11T16:30:00Z,28.6620,-89.5510,1006.2,11111222 
ADCP,ioos:station:NOAA.NDBC:WDEL1:1,2010-03-11T17:30:00Z,28.6620,-89.5510,1006.5,11111222 
ADCP,ioos:station:NOAA.NDBC:WDEL1:1,2010-03-11T18:30:00Z,28.6620,-89.5510,1005.8,11111222 
ADCP,ioos:station:NOAA.NDBC:WDEL1:1,2010-03-11T19:30:00Z,28.6620,-89.5510,1004.6,11111222 
ADCP,ioos:station:NOAA.NDBC:WDEL1:1,2010-03-11T20:30:00Z,28.6620,-89.5510,1004.4,11111222 
ADCP,ioos:station:NOAA.NDBC:WDEL1:1,2010-03-11T21:30:00Z,28.6620,-89.5510,1003.7,11111222 
ADCP,ioos:station:NOAA.NDBC:WDEL1:1,2010-03-11T22:30:00Z,28.6620,-89.5510,1003.6,11111222 